Location: Newark
(48.6461°N, 4.3644°W)
Time: 11:17:06
(UTC+00:00)

Transit 4A - Pass Details

Date: 23 January 2020
Orbit: 872 x 973 km, 66.8° (Epoch: 19 February)

Event Time Altitude Azimuth Distance (km) Brightness Sun altitude
Rises 05:46:02 0° 159° (SSE) 3,549 11.3 -21.6°
Reaches altitude 10° 05:49:38 10° 138° (SE) 2,591 10.9 -21.0°
Maximum altitude 05:52:59 16° 104° (ESE) 2,203 10.9 -20.4°
Drops below altitude 10° 05:56:18 10° 69° (ENE) 2,565 11.1 -19.9°
Sets 05:59:48 0° 48° (NE) 3,495 11.5 -19.3°
